| time (UTC) | temp F | wind direction | speed MPH | gust MPH | rain 1hr in | rain 24hr in | rain mn in | humidity % | barometer mb |
| 20260901064607 | 63 | 0 | 0.0 | 3.0 | 0.00 | 0.00 | 0.00 | 75 | 1010.1 |
| 20260901063102 | 63 | 0 | 1.0 | 7.0 | 0.00 | 0.00 | 0.00 | 74 | 1009.9 |
| 20260901061601 | 62 | 0 | 0.0 | 6.0 | 0.00 | 0.00 | 0.00 | 76 | 1009.7 |
| 20260901054600 | 63 | 0 | 0.0 | 6.0 | 0.00 | 0.00 | 0.00 | 75 | 1009.5 |
| 20260901053105 | 60 | 0 | 1.0 | 4.0 | 0.00 | 0.00 | 0.00 | 80 | 1009.3 |
| 20260901051600 | 60 | 100 | 0.0 | 2.0 | 0.00 | 0.00 | 0.00 | 83 | 1009.3 |
| 20260901050058 | 61 | 104 | 0.0 | 2.0 | 0.00 | 0.00 | 0.00 | 83 | 1009.1 |
| 20260901044605 | 61 | 105 | 1.0 | 2.0 | 0.00 | 0.00 | 0.00 | 82 | 1009.0 |
| 20260901043102 | 62 | 101 | 0.0 | 2.0 | 0.00 | 0.00 | 0.00 | 81 | 1009.1 |
| 20260901041601 | 63 | 0 | 0.0 | 3.0 | 0.00 | 0.00 | 0.00 | 81 | 1008.9 |
| 20260901040058 | 64 | 0 | 0.0 | 1.0 | 0.00 | 0.00 | 0.00 | 81 | 1008.7 |
| 20260901034602 | 65 | 0 | 0.0 | 1.0 | 0.00 | 0.00 | 0.00 | 78 | 1008.6 |
| 20260901033102 | 66 | 0 | 0.0 | 1.0 | 0.00 | 0.00 | 0.00 | 78 | 1008.4 |
| 20260901031603 | 67 | 0 | 0.0 | 3.0 | 0.00 | 0.00 | 0.00 | 77 | 1008.3 |
| 20260901030100 | 68 | 97 | 1.0 | 6.0 | 0.00 | 0.00 | 0.00 | 75 | 1008.4 |
| 20260901024614 | 70 | 105 | 1.0 | 3.0 | 0.00 | 0.00 | 0.00 | 73 | 1008.6 |
| 20260901023101 | 72 | 113 | 0.0 | 2.0 | 0.00 | 0.00 | 0.00 | 70 | 1008.4 |
| 20260901021600 | 74 | 0 | 0.0 | 4.0 | 0.00 | 0.00 | 0.00 | 63 | 1008.4 |
| 20260901014606 | 75 | 0 | 0.0 | 1.0 | 0.00 | 0.00 | 0.00 | 64 | 1008.1 |
| 20260901013123 | 76 | 0 | 0.0 | 1.0 | 0.00 | 0.00 | 0.00 | 61 | 1008.3 |
| 20260901011559 | 78 | 0 | 0.0 | 0.0 | 0.00 | 0.00 | 0.00 | 57 | 1008.1 |
| 20260901010124 | 78 | 0 | 0.0 | 0.0 | 0.00 | 0.00 | 0.00 | 55 | 1008.0 |
| 20260901004615 | 79 | 0 | 0.0 | 1.0 | 0.00 | 0.00 | 0.00 | 53 | 1008.1 |
| 20260901003102 | 79 | 0 | 0.0 | 1.0 | 0.00 | 0.00 | 0.00 | 46 | 1008.1 |
| 20260901001601 | 80 | 0 | 0.0 | 4.0 | 0.00 | 0.00 | 0.00 | 45 | 1008.1 |
| 20260901000106 | 80 | 0 | 0.0 | 4.0 | 0.00 | 0.00 | 0.00 | 46 | 1008.1 |
| 20260831234633 | 80 | 0 | 0.0 | 3.0 | 0.00 | 0.00 | 0.00 | 47 | 1008.2 |
| 20260831233104 | 80 | 0 | 0.0 | 4.0 | 0.00 | 0.00 | 0.00 | 44 | 1008.1 |
| 20260831231602 | 80 | 234 | 0.0 | 4.0 | 0.00 | 0.00 | 0.00 | 44 | 1008.1 |
| 20260831230100 | 80 | 352 | 2.0 | 7.0 | 0.00 | 0.00 | 0.00 | 41 | 1008.1 |
| 20260831224604 | 81 | 318 | 1.0 | 6.0 | 0.00 | 0.00 | 0.00 | 43 | 1008.1 |
| 20260831223103 | 82 | 22 | 0.0 | 13.0 | 0.00 | 0.00 | 0.00 | 43 | 1008.2 |
| 20260831221601 | 81 | 0 | 1.0 | 10.0 | 0.00 | 0.00 | 0.00 | 38 | 1008.4 |
| 20260831220100 | 81 | 0 | 0.0 | 6.0 | 0.00 | 0.00 | 0.00 | 40 | 1008.5 |
| 20260831214618 | 81 | 0 | 1.0 | 9.0 | 0.00 | 0.00 | 0.00 | 35 | 1008.6 |
| 20260831213104 | 81 | 0 | 0.0 | 11.0 | 0.00 | 0.00 | 0.00 | 36 | 1008.6 |
| 20260831211602 | 80 | 304 | 0.0 | 11.0 | 0.00 | 0.00 | 0.00 | 36 | 1008.5 |
| 20260831210100 | 80 | 0 | 0.0 | 9.0 | 0.00 | 0.00 | 0.00 | 37 | 1008.5 |
| 20260831204607 | 80 | 26 | 0.0 | 10.0 | 0.00 | 0.00 | 0.00 | 41 | 1008.7 |
| 20260831203103 | 79 | 327 | 0.0 | 10.0 | 0.00 | 0.00 | 0.00 | 40 | 1008.8 |
| 20260831201615 | 78 | 352 | 0.0 | 9.0 | 0.00 | 0.00 | 0.00 | 39 | 1009.1 |
| 20260831200100 | 78 | 36 | 0.0 | 11.0 | 0.00 | 0.00 | 0.00 | 42 | 1009.3 |
| 20260831194604 | 77 | 329 | 0.0 | 5.0 | 0.00 | 0.00 | 0.00 | 43 | 1009.4 |
| 20260831193131 | 77 | 0 | 0.0 | 8.0 | 0.00 | 0.00 | 0.00 | 47 | 1009.5 |
| 20260831191558 | 76 | 0 | 2.0 | 13.0 | 0.00 | 0.00 | 0.00 | 45 | 1009.7 |
| 20260831190101 | 75 | 325 | 0.0 | 8.0 | 0.00 | 0.00 | 0.00 | 46 | 1009.9 |
| 20260831184606 | 74 | 271 | 0.0 | 5.0 | 0.00 | 0.00 | 0.00 | 45 | 1010.1 |
| 20260831183106 | 73 | 0 | 3.0 | 11.0 | 0.00 | 0.00 | 0.00 | 46 | 1010.2 |
| 20260831181612 | 72 | 318 | 1.0 | 9.0 | 0.00 | 0.00 | 0.00 | 51 | 1010.5 |
| 20260831180105 | 71 | 5 | 1.0 | 10.0 | 0.00 | 0.00 | 0.00 | 52 | 1010.8 |
| 20260831174602 | 69 | 0 | 1.0 | 10.0 | 0.00 | 0.00 | 0.00 | 55 | 1010.7 |
| 20260831173105 | 68 | 0 | 0.0 | 6.0 | 0.00 | 0.00 | 0.00 | 62 | 1010.9 |
| 20260831171607 | 66 | 338 | 1.0 | 10.0 | 0.00 | 0.00 | 0.00 | 65 | 1011.0 |
| 20260831170107 | 64 | 0 | 2.0 | 9.0 | 0.00 | 0.00 | 0.00 | 70 | 1011.1 |
| 20260831164613 | 62 | 323 | 1.0 | 5.0 | 0.00 | 0.00 | 0.00 | 76 | 1011.1 |
| 20260831163106 | 60 | 0 | 0.0 | 5.0 | 0.00 | 0.00 | 0.00 | 81 | 1011.2 |
| 20260831161610 | 59 | 5 | 1.0 | 11.0 | 0.00 | 0.00 | 0.00 | 84 | 1011.3 |
| 20260831160111 | 57 | 298 | 1.0 | 8.0 | 0.00 | 0.00 | 0.00 | 87 | 1011.5 |
| 20260831154629 | 55 | 264 | 0.0 | 3.0 | 0.00 | 0.00 | 0.00 | 93 | 1011.8 |
| 20260831153101 | 53 | 0 | 0.0 | 4.0 | 0.00 | 0.00 | 0.00 | 98 | 1011.6 |
| 20260831151608 | 50 | 0 | 0.0 | 0.0 | 0.00 | 0.00 | 0.00 | 98 | 1011.8 |
| 20260831150107 | 49 | 0 | 0.0 | 0.0 | 0.00 | 0.00 | 0.00 | 98 | 1011.8 |
| 20260831144604 | 48 | 0 | 0.0 | 3.0 | 0.00 | 0.00 | 0.00 | 98 | 1012.1 |
| 20260831143107 | 47 | 0 | 0.0 | 0.0 | 0.00 | 0.00 | 0.00 | 98 | 1011.9 |
| 20260831141607 | 46 | 0 | 0.0 | 0.0 | 0.00 | 0.00 | 0.00 | 97 | 1012.0 |
| 20260831134607 | 46 | 0 | 0.0 | 2.0 | 0.00 | 0.00 | 0.00 | 97 | 1011.9 |
| 20260831133102 | 46 | 0 | 0.0 | 2.0 | 0.00 | 0.00 | 0.00 | 97 | 1011.9 |
| 20260831131603 | 46 | 0 | 0.0 | 3.0 | 0.00 | 0.00 | 0.00 | 97 | 1012.0 |
| 20260831130111 | 46 | 0 | 0.0 | 1.0 | 0.00 | 0.00 | 0.00 | 97 | 1012.1 |
| 20260831124609 | 46 | 108 | 0.0 | 3.0 | 0.00 | 0.00 | 0.00 | 97 | 1012.1 |
| 20260831123102 | 46 | 0 | 0.0 | 2.0 | 0.00 | 0.00 | 0.00 | 97 | 1012.2 |
| 20260831121609 | 46 | 0 | 0.0 | 3.0 | 0.00 | 0.00 | 0.00 | 97 | 1012.3 |
| 20260831120103 | 47 | 0 | 0.0 | 3.0 | 0.00 | 0.00 | 0.00 | 97 | 1012.3 |
| 20260831114602 | 47 | 0 | 0.0 | 3.0 | 0.00 | 0.00 | 0.00 | 97 | 1012.5 |
| 20260831113102 | 47 | 0 | 0.0 | 2.0 | 0.00 | 0.00 | 0.00 | 96 | 1012.5 |
| 20260831111605 | 47 | 112 | 0.0 | 2.0 | 0.00 | 0.00 | 0.00 | 97 | 1012.9 |
| 20260831104605 | 47 | 0 | 0.0 | 0.0 | 0.00 | 0.00 | 0.00 | 96 | 1012.9 |
| 20260831103100 | 47 | 0 | 0.0 | 0.0 | 0.00 | 0.00 | 0.00 | 96 | 1012.9 |
| 20260831101606 | 48 | 0 | 0.0 | 2.0 | 0.00 | 0.00 | 0.00 | 96 | 1013.2 |
| 20260831100121 | 48 | 0 | 0.0 | 2.0 | 0.00 | 0.00 | 0.00 | 96 | 1013.2 |
| 20260831094601 | 48 | 0 | 0.0 | 2.0 | 0.00 | 0.00 | 0.00 | 96 | 1013.3 |
| 20260831093120 | 48 | 0 | 0.0 | 1.0 | 0.00 | 0.00 | 0.00 | 96 | 1013.5 |
| 20260831091605 | 48 | 0 | 0.0 | 3.0 | 0.00 | 0.00 | 0.00 | 96 | 1013.6 |
| 20260831090129 | 49 | 0 | 0.0 | 0.0 | 0.00 | 0.00 | 0.00 | 95 | 1013.7 |
| 20260831084604 | 49 | 0 | 0.0 | 0.0 | 0.00 | 0.00 | 0.00 | 95 | 1013.9 |
| 20260831083112 | 49 | 0 | 0.0 | 2.0 | 0.00 | 0.00 | 0.00 | 95 | 1014.0 |
| 20260831081606 | 49 | 108 | 0.0 | 2.0 | 0.00 | 0.00 | 0.00 | 95 | 1014.2 |
| 20260831080129 | 50 | 0 | 0.0 | 0.0 | 0.00 | 0.00 | 0.00 | 95 | 1014.3 |
| 20260831074603 | 50 | 0 | 0.0 | 0.0 | 0.00 | 0.00 | 0.00 | 94 | 1014.7 |
| 20260831073100 | 50 | 0 | 0.0 | 2.0 | 0.00 | 0.00 | 0.00 | 93 | 1014.7 |
| 20260831071605 | 51 | 0 | 0.0 | 3.0 | 0.00 | 0.00 | 0.00 | 94 | 1014.8 |